Location: Unspecified
(40.7945°N, 0.0000°E)
Time: 01:34:25
(UTC+00:00)

Altair - Pass Details

Date: 27 January 2021
Orbit: 1501 x 1682 km, 47.2° (Epoch: 01 March)

Event Time Altitude Azimuth Distance (km) Brightness Sun altitude
Rises 07:52:00 0° 284° (WNW) 4,912 9.5 5.5°
Reaches altitude 10° 07:55:13 10° 288° (WNW) 3,935 9.1 6.0°
Maximum altitude 08:05:18 63° 9° (N) 1,841 8.0 7.6°
Drops below altitude 10° 08:15:20 10° 90° (E) 3,916 10.7 9.2°
Sets 08:18:32 0° 94° (E) 4,887 11.3 9.7°
